Total_Precipitation_Accumulation
0.36 0.49 0.51 0.41 0.38 0.39 0.38 0.42 0.56 0.53 0.56 0.67 0.79 0.81 0.70 0.70 0.62 0.53 0.35 0.31 0.29 0.25 0.23 0.23 0.24 0.24 0.26 0.28 0.30 0.37 0.45 0.51 0.60 0.75 0.91 1.10 1.29 1.45
0.36 0.42 0.53 0.58 0.51 0.48 0.48 0.53 0.65 0.65 0.65 0.71 0.83 0.83 0.66 0.49 0.42 0.42 0.35 0.34 0.30 0.24 0.19 0.19 0.20 0.20 0.18 0.18 0.17 0.17 0.20 0.24 0.30 0.38 0.49 0.61 0.78 1.05
0.50 0.50 0.49 0.61 0.69 0.64 0.63 0.63 0.68 0.73 0.72 0.69 0.82 0.84 0.70 0.49 0.39 0.37 0.33 0.33 0.28 0.25 0.20 0.17 0.18 0.18 0.17 0.16 0.15 0.13 0.12 0.12 0.13 0.18 0.23 0.29 0.36 0.44
0.53 0.69 0.70 0.65 0.63 0.63 0.62 0.64 0.69 0.80 0.80 0.72 0.77 0.85 0.79 0.66 0.52 0.42 0.33 0.29 0.29 0.29 0.26 0.21 0.18 0.18 0.16 0.15 0.14 0.12 0.11 0.10 0.09 0.08 0.09 0.11 0.14 0.19
0.37 0.59 0.77 0.91 0.83 0.65 0.56 0.54 0.62 0.77 0.86 0.81 0.82 0.94 0.96 0.84 0.65 0.48 0.37 0.30 0.27 0.29 0.28 0.25 0.22 0.19 0.17 0.15 0.13 0.10 0.07 0.06 0.05 0.04 0.05 0.05 0.06 0.07
0.24 0.34 0.47 0.67 0.83 0.87 0.75 0.62 0.61 0.69 0.78 0.82 0.95 1.17 1.19 1.04 0.75 0.56 0.47 0.37 0.29 0.24 0.24 0.23 0.21 0.18 0.16 0.13 0.11 0.09 0.08 0.05 0.04 0.04 0.04 0.04 0.04 0.04
0.19 0.23 0.25 0.33 0.46 0.62 0.75 0.79 0.76 0.70 0.76 0.84 1.08 1.50 1.52 1.25 0.83 0.60 0.52 0.47 0.37 0.27 0.23 0.20 0.18 0.15 0.13 0.12 0.11 0.09 0.07 0.06 0.04 0.04 0.03 0.03 0.04 0.04
0.25 0.24 0.21 0.20 0.25 0.34 0.47 0.60 0.75 0.78 0.79 0.84 1.05 1.36 1.52 1.38 1.10 0.85 0.62 0.46 0.39 0.30 0.25 0.25 0.19 0.17 0.13 0.09 0.09 0.08 0.06 0.05 0.04 0.03 0.02 0.02 0.03 0.03
0.31 0.33 0.22 0.14 0.17 0.21 0.28 0.37 0.46 0.57 0.70 0.79 0.94 1.16 1.44 1.55 1.34 0.96 0.74 0.61 0.43 0.31 0.24 0.27 0.25 0.20 0.15 0.13 0.12 0.08 0.06 0.04 0.03 0.02 0.02 0.01 0.01 0.01
0.31 0.33 0.30 0.23 0.21 0.22 0.25 0.26 0.29 0.33 0.42 0.54 0.69 0.93 1.22 1.52 1.62 1.36 1.11 0.93 0.70 0.50 0.30 0.26 0.27 0.25 0.19 0.15 0.16 0.11 0.07 0.05 0.03 0.03 0.02 0.02 0.02 0.02
0.31 0.34 0.34 0.30 0.22 0.19 0.24 0.25 0.25 0.27 0.31 0.37 0.49 0.69 0.95 1.24 1.56 1.66 1.36 0.98 0.82 0.61 0.36 0.24 0.21 0.23 0.25 0.18 0.15 0.15 0.10 0.06 0.04 0.03 0.02 0.02 0.02 0.02
0.43 0.46 0.42 0.37 0.31 0.19 0.21 0.24 0.23 0.23 0.26 0.27 0.32 0.44 0.62 0.87 1.19 1.37 1.36 1.03 0.76 0.62 0.37 0.22 0.20 0.20 0.23 0.19 0.11 0.09 0.08 0.09 0.07 0.05 0.03 0.02 0.01 0.00
0.52 0.60 0.56 0.44 0.33 0.24 0.21 0.23 0.21 0.25 0.28 0.29 0.30 0.36 0.52 0.73 0.91 1.15 1.26 1.15 0.86 0.56 0.37 0.26 0.21 0.18 0.14 0.11 0.09 0.08 0.06 0.04 0.04 0.05 0.05 0.04 0.02 0.01
0.58 0.74 0.76 0.63 0.47 0.34 0.27 0.24 0.21 0.22 0.28 0.31 0.32 0.33 0.41 0.54 0.72 0.97 1.16 1.17 1.01 0.75 0.51 0.37 0.26 0.17 0.12 0.08 0.06 0.06 0.07 0.05 0.02 0.01 0.02 0.04 0.03 0.01
0.55 0.79 0.88 0.76 0.63 0.49 0.39 0.34 0.28 0.24 0.26 0.28 0.25 0.26 0.32 0.42 0.60 0.87 1.17 1.25 1.17 0.97 0.77 0.52 0.33 0.23 0.15 0.08 0.04 0.03 0.03 0.04 0.03 0.01 0.01 0.01 0.00 0.00
0.42 0.56 0.71 0.78 0.72 0.66 0.56 0.44 0.35 0.31 0.29 0.29 0.28 0.31 0.38 0.47 0.58 0.70 0.95 1.12 1.13 1.03 0.84 0.65 0.44 0.30 0.20 0.11 0.05 0.02 0.01 0.02 0.02 0.02 0.01 0.00 0.00 0.00
0.39 0.52 0.69 0.80 0.82 0.79 0.75 0.64 0.51 0.45 0.39 0.37 0.41 0.41 0.44 0.48 0.51 0.56 0.71 0.86 0.84 0.80 0.74 0.67 0.55 0.40 0.26 0.16 0.08 0.03 0.01 0.01 0.01 0.01 0.01 0.01 0.00 0.00
0.29 0.47 0.64 0.79 0.89 0.90 0.89 0.82 0.69 0.58 0.50 0.48 0.49 0.47 0.45 0.49 0.49 0.48 0.57 0.69 0.71 0.69 0.65 0.57 0.50 0.43 0.34 0.22 0.13 0.06 0.02 0.01 0.00 0.00 0.00 0.00 0.00 0.00
0.19 0.36 0.50 0.63 0.78 0.90 0.91 0.85 0.75 0.68 0.62 0.61 0.61 0.58 0.51 0.50 0.51 0.48 0.47 0.57 0.65 0.64 0.65 0.58 0.47 0.37 0.32 0.23 0.13 0.07 0.04 0.02 0.01 0.00 0.00 0.00 0.00 0.00
0.15 0.28 0.40 0.52 0.64 0.78 0.83 0.81 0.80 0.77 0.72 0.68 0.69 0.68 0.62 0.54 0.53 0.50 0.45 0.43 0.52 0.59 0.59 0.57 0.48 0.35 0.24 0.18 0.13 0.09 0.06 0.04 0.02 0.01 0.00 0.00 0.00 0.00
0.17 0.21 0.28 0.38 0.52 0.67 0.78 0.81 0.81 0.77 0.72 0.70 0.71 0.71 0.69 0.61 0.54 0.52 0.52 0.47 0.44 0.48 0.48 0.44 0.41 0.40 0.33 0.25 0.20 0.15 0.09 0.06 0.05 0.03 0.01 0.00 0.00 0.00
0.22 0.23 0.24 0.30 0.44 0.59 0.70 0.78 0.82 0.78 0.71 0.70 0.72 0.70 0.67 0.64 0.56 0.53 0.56 0.50 0.39 0.36 0.41 0.45 0.49 0.50 0.45 0.36 0.23 0.16 0.12 0.08 0.05 0.04 0.03 0.01 0.00 0.00
0.27 0.23 0.20 0.23 0.35 0.49 0.58 0.68 0.76 0.73 0.65 0.62 0.66 0.70 0.63 0.59 0.55 0.53 0.53 0.53 0.45 0.40 0.45 0.50 0.52 0.50 0.45 0.42 0.33 0.23 0.17 0.11 0.07 0.03 0.02 0.01 0.00 0.00